Zhengzhou, China

5:40 AM CST on April 21, 2019 (GMT +0800)
Xinzheng

Weather History for ZHCC - April, 2019

Change the Weather History Date:

Saturday, April 20, 2019

  Actual Average Record
Temperature  
Mean Temperature 61 °F -  
Max Temperature 74 °F - - ()
Min Temperature 48 °F - - ()
Degree Days  
Heating Degree Days 4    
Growing Degree Days 11 (Base 50)    
Moisture  
Dew Point 43 °F    
Average Humidity 44    
Maximum Humidity 66    
Minimum Humidity 25    
Precipitation  
Precipitation 0.02 in - - ()
Sea Level Pressure  
Sea Level Pressure 29.87 in    
Wind  
Wind Speed 4 mph ()    
Max Wind Speed 9 mph    
Max Gust Speed -    
Visibility 7.7 miles    
Events Rain    
T = Trace of Precipitation, MM = Missing Value Source: Averaged Metar Reports

Daily Weather History Graph

Daily Weather History Graph

Search for Another Location

Airport or City:

Astronomy

Apr. 20, 2019 Rise Set
Actual Time 5:48 AM CST 7:00 PM CST
Civil Twilight 5:22 AM CST 7:27 PM CST
Nautical Twilight 4:51 AM CST 7:58 PM CST
Astronomical Twilight 4:18 AM CST 8:31 PM CST
Moon 7:57 PM CST 6:29 AM CST
Length of Visible Light 14h 04m
Length of Day
13h 12m
Full, 99% of the Moon is Illuminated
Apr 20
Full
Apr 27
Last Quarter
May 5
New
May 12
First Quarter
May 19
Full

Hourly Weather History & Observations

Time (CST) Temp. Dew Point Humidity Pressure Visibility Wind Dir Wind Speed Gust Speed Precip Events Conditions
12:00 AM 50.0 °F 37.4 °F 62% 29.98 in - WNW 4.5 mph - N/A   Clear
1:00 AM 51.8 °F 35.6 °F 54% 29.98 in - NNW 4.5 mph - N/A   Clear
2:00 AM 53 °F 33 °F 35% 29.94 in 19 mi East 2.2 mph - -  
2:00 AM 51.8 °F 35.6 °F 54% 29.92 in - NNE 4.5 mph - N/A   Clear
4:00 AM 48.2 °F 37.4 °F 66% 29.89 in - West 4.5 mph - N/A   Clear
5:00 AM 56 °F 32 °F 27% 29.90 in 18 mi East 2.2 mph - -  
6:00 AM 51.8 °F 35.6 °F 54% 29.89 in - North 4.5 mph - N/A   Clear
7:00 AM 51.8 °F 37.4 °F 58% 29.89 in - WNW 4.5 mph - N/A   Clear
8:00 AM 59 °F 33 °F 26% 29.92 in 15 mi NE 4.5 mph - -   Mostly Cloudy
8:00 AM 57.2 °F 37.4 °F 48% 29.92 in - North 4.5 mph - N/A   Clear
10:00 AM 64.4 °F 37.4 °F 37% 29.89 in - Variable 2.2 mph - N/A   Clear
11:00 AM 67 °F 40 °F 26% 29.89 in 10 mi North 2.2 mph - -  
11:00 AM 68.0 °F 39.2 °F 35% 29.89 in - Variable 2.2 mph - N/A   Clear
12:00 PM 69.8 °F 42.8 °F 38% 29.86 in - Variable 4.5 mph - N/A   Clear
1:00 PM 71.6 °F 44.6 °F 38% 29.83 in 5.0 mi Variable 4.5 mph - N/A   Unknown
2:00 PM 74 °F 46 °F 25% 29.83 in 8 mi WSW 4.5 mph - -   Mostly Cloudy
2:00 PM 73.4 °F 44.6 °F 36% 29.83 in 5.0 mi ENE 6.7 mph - N/A   Unknown
4:00 PM 73.4 °F 46.4 °F 38% 29.77 in 5.0 mi ENE 8.9 mph - N/A   Unknown
5:00 PM 73 °F 48 °F 31% 29.79 in 7 mi NE 4.5 mph - -   Overcast
5:00 PM 71.6 °F 48.2 °F 43% 29.80 in 5.0 mi ESE 6.7 mph - N/A   Unknown
6:00 PM 69.8 °F 50.0 °F 49% 29.80 in 5.0 mi NE 8.9 mph - N/A   Unknown
7:00 PM 69.8 °F 50.0 °F 49% 29.80 in 5.0 mi NE 8.9 mph - N/A   Unknown
8:00 PM 69 °F 52 °F 43% 29.83 in 6 mi ENE 2.2 mph - -   Overcast
8:00 PM 68.0 °F 51.8 °F 56% 29.83 in 5.0 mi North 4.5 mph - N/A   Unknown
9:00 PM 68.0 °F 51.8 °F 56% 29.86 in 5.0 mi North 4.5 mph - N/A   Unknown
10:00 PM 68.0 °F 51.8 °F 56% 29.86 in 5.0 mi North 6.7 mph - N/A   Unknown
11:00 PM 66 °F 49 °F 43% 29.87 in 6 mi NW 4.5 mph - - Rain Light Rain
11:00 PM 64.4 °F 48.2 °F 56% 29.86 in 5.0 mi WNW 6.7 mph - N/A Rain Light Rain